Window Rock, AZ

4:24 PM MDT on July 25, 2017 (GMT -0600)
Window Rock

Weather History for KRQE - January, 2013

Change the Weather History Date:

Sunday, January 13, 2013

  Actual Average Record
Temperature  
Mean Temperature 3 °F -  
Max Temperature 19 °F 42 °F 59 °F (1959)
Min Temperature -13 °F 13 °F -29 °F (1963)
Degree Days  
Heating Degree Days 62    
Moisture  
Dew Point -7 °F    
Average Humidity 64    
Maximum Humidity 83    
Minimum Humidity 36    
Precipitation  
Precipitation 0.00 in - - ()
Sea Level Pressure  
Sea Level Pressure 30.10 in    
Wind  
Wind Speed 2 mph (SW)    
Max Wind Speed 14 mph    
Max Gust Speed -    
Visibility 10 miles    
Events      
Averages and records for this station are not official NWS values.
T = Trace of Precipitation, MM = Missing Value Source: NWS Daily Summary

Daily Weather History Graph

Daily Weather History Graph

Search for Another Location

Airport or City:

Trip Planner

Search our weather history database for the weather conditions in past years. The results will help you decide how hot, cold, wet, or windy it might be!

Date:

Astronomy

Jan. 13, 2013 Rise Set
Actual Time 7:25 AM MST 5:24 PM MST
Civil Twilight 6:57 AM MST 5:52 PM MST
Nautical Twilight 6:26 AM MST 6:24 PM MST
Astronomical Twilight 5:55 AM MST 6:54 PM MST
Moon 8:32 AM MST (1/13) 8:00 PM MST (1/13)
Length of Visible Light 10h 54m
Length of Day
9h 59m
Waxing Crescent, 5% of the Moon is Illuminated
Jan 13
Waxing Crescent
Jan 18
First Quarter
Jan 26
Full
Feb 3
Last Quarter
Feb 10
New

Hourly Weather History & Observations

Time (MST) Temp. Windchill Dew Point Humidity Pressure Visibility Wind Dir Wind Speed Gust Speed Precip Events Conditions
12:53 AM -4.0 °F - -8.0 °F 83% 30.10 in 10.0 mi Calm Calm - N/A   Overcast
1:53 AM -2.0 °F - -7.1 °F 79% 30.09 in 10.0 mi Calm Calm - N/A   Overcast
2:53 AM -4.0 °F - -9.0 °F 79% 30.09 in 10.0 mi Calm Calm - N/A   Scattered Clouds
3:53 AM -9.0 °F - -14.1 °F 79% 30.11 in 10.0 mi Calm Calm - N/A   Clear
4:53 AM -9.9 °F - -14.1 °F 82% 30.11 in 10.0 mi Calm Calm - N/A   Clear
5:53 AM -13.0 °F - -17.0 °F 82% 30.14 in 10.0 mi Calm Calm - N/A   Clear
6:53 AM -11.9 °F - -16.1 °F 82% 30.19 in 10.0 mi Calm Calm - N/A   Clear
7:53 AM -11.9 °F - -16.1 °F 82% 30.24 in 10.0 mi Calm Calm - N/A   Clear
8:53 AM -5.1 °F - -9.9 °F 80% 30.23 in 8.0 mi Calm Calm - N/A   Clear
9:53 AM 3.9 °F - -4.0 °F 70% 30.20 in 10.0 mi Calm Calm - N/A   Clear
10:53 AM 14.0 °F - 1.0 °F 56% 30.13 in 10.0 mi Calm Calm - N/A   Clear
11:53 AM 19.0 °F 6.8 °F -2.0 °F 40% 30.04 in 10.0 mi SW 11.5 mph - N/A   Clear
12:53 PM 19.0 °F 6.8 °F -0.9 °F 42% 30.00 in 10.0 mi WSW 11.5 mph - N/A   Clear
1:53 PM 19.9 °F 7.9 °F -2.0 °F 38% 29.98 in 10.0 mi SW 11.5 mph - N/A   Clear
2:53 PM 19.9 °F 6.7 °F -2.0 °F 38% 30.00 in 10.0 mi SW 13.8 mph - N/A   Clear
3:53 PM 19.0 °F 7.5 °F -4.0 °F 36% 30.04 in 10.0 mi WSW 10.4 mph - N/A   Clear
4:53 PM 17.1 °F 11.7 °F -4.0 °F 39% 30.06 in 10.0 mi WSW 3.5 mph - N/A   Clear
5:53 PM 12.9 °F - -5.1 °F 45% 30.11 in 10.0 mi Calm Calm - N/A   Clear
6:53 PM 8.1 °F - -4.0 °F 58% 30.13 in 10.0 mi Calm Calm - N/A   Mostly Cloudy
7:53 PM 3.9 °F - -5.1 °F 66% 30.15 in 10.0 mi Calm Calm - N/A   Overcast
8:53 PM -0.0 °F - -7.1 °F 72% 30.14 in 10.0 mi Calm Calm - N/A   Overcast
9:53 PM 3.9 °F -5.3 °F -4.0 °F 70% 30.07 in 10.0 mi SSW 4.6 mph - N/A   Overcast
10:53 PM 3.9 °F - -4.0 °F 70% 30.02 in 10.0 mi Calm Calm - N/A   Mostly Cloudy
11:53 PM -0.0 °F - -6.0 °F 76% 30.02 in 10.0 mi Calm Calm - N/A   Clear